| time (UTC) | temp F | wind direction | speed knots | gust knots | rain 1hr in | rain 24hr in | rain mn in | humidity % | barometer mb |
| 20260507160519 | 58 | 268 | 1.7 | 6.1 | 0.00 | 0.46 | 0.38 | 56 | 1006.4 |
| 20260507155520 | 59 | 347 | 2.6 | 4.3 | 0.00 | 0.46 | 0.38 | 59 | 1007.5 |
| 20260507154539 | 60 | 341 | 2.6 | 4.3 | 0.00 | 0.46 | 0.38 | 57 | 1007.1 |
| 20260507153539 | 59 | 307 | 1.7 | 5.2 | 0.00 | 0.46 | 0.38 | 58 | 1005.7 |
| 20260507152516 | 58 | 81 | 0.9 | 3.5 | 0.00 | 0.46 | 0.38 | 59 | 1007.2 |
| 20260507151516 | 58 | 291 | 4.3 | 7.8 | 0.00 | 0.46 | 0.38 | 60 | 1006.6 |
| 20260507150520 | 59 | 250 | 2.6 | 4.3 | 0.00 | 0.46 | 0.38 | 62 | 1005.8 |
| 20260507145540 | 59 | 287 | 5.2 | 8.7 | 0.00 | 0.46 | 0.38 | 59 | 1006.3 |
| 20260507144517 | 58 | 316 | 2.6 | 6.1 | 0.00 | 0.46 | 0.38 | 59 | 1006.5 |
| 20260507143518 | 57 | 302 | 2.6 | 6.1 | 0.00 | 0.46 | 0.38 | 60 | 1006.6 |
| 20260507142518 | 57 | 5 | 4.3 | 7.0 | 0.00 | 0.46 | 0.38 | 64 | 1006.6 |
| 20260507141518 | 55 | 331 | 5.2 | 6.1 | 0.00 | 0.46 | 0.38 | 68 | 1007.0 |
| 20260507140518 | 55 | 325 | 3.5 | 6.1 | 0.00 | 0.46 | 0.38 | 70 | 1007.0 |
| 20260507135538 | 54 | 5 | 4.3 | 10.4 | 0.00 | 0.46 | 0.38 | 74 | 1007.1 |
| 20260507134538 | 54 | 9 | 4.3 | 6.1 | 0.00 | 0.46 | 0.38 | 77 | 1007.1 |
| 20260507133518 | 53 | 292 | 3.5 | 7.0 | 0.00 | 0.46 | 0.38 | 82 | 1007.2 |
| 20260507132519 | 53 | 311 | 3.5 | 7.8 | 0.00 | 0.46 | 0.38 | 88 | 1007.3 |
| 20260507131519 | 52 | 325 | 2.6 | 4.3 | 0.00 | 0.46 | 0.38 | 93 | 1006.9 |
| 20260507130519 | 52 | 352 | 1.7 | 3.5 | 0.00 | 0.46 | 0.38 | 97 | 1006.9 |
| 20260507125519 | 50 | 343 | 1.7 | 2.6 | 0.00 | 0.46 | 0.38 | 97 | 1007.0 |
| 20260507124519 | 50 | 316 | 3.5 | 5.2 | 0.00 | 0.46 | 0.38 | 97 | 1007.8 |
| 20260507123519 | 50 | 331 | 1.7 | 2.6 | 0.00 | 0.46 | 0.38 | 97 | 1007.4 |
| 20260507122551 | 49 | 316 | 0.9 | 1.7 | 0.00 | 0.46 | 0.38 | 97 | 1008.2 |
| 20260507121552 | 49 | 0.0 | 0.0 | 0.02 | 0.46 | 0.38 | 97 | 1008.5 | |
| 20260507120517 | 49 | 244 | 0.0 | 0.9 | 0.06 | 0.46 | 0.38 | 97 | 1008.0 |
| 20260507115517 | 48 | 284 | 0.9 | 0.9 | 0.07 | 0.46 | 0.38 | 96 | 1007.9 |
| 20260507114517 | 48 | 0.0 | 0.0 | 0.08 | 0.46 | 0.38 | 96 | 1008.2 | |
| 20260507113517 | 48 | 342 | 0.9 | 0.9 | 0.08 | 0.46 | 0.38 | 96 | 1008.1 |
| 20260507112532 | 48 | 188 | 1.7 | 1.7 | 0.08 | 0.46 | 0.38 | 95 | 1008.6 |
| 20260507111518 | 48 | 351 | 0.0 | 0.9 | 0.07 | 0.44 | 0.37 | 95 | 1008.1 |
| 20260507110558 | 48 | 283 | 1.7 | 2.6 | 0.03 | 0.40 | 0.33 | 95 | 1008.7 |
| 20260507105518 | 48 | 268 | 1.7 | 2.6 | 0.02 | 0.38 | 0.31 | 95 | 1008.3 |
| 20260507103519 | 48 | 294 | 1.7 | 2.6 | 0.03 | 0.38 | 0.30 | 94 | 1008.0 |
| 20260507102519 | 48 | 344 | 1.7 | 2.6 | 0.03 | 0.38 | 0.30 | 94 | 1008.3 |
| 20260507101517 | 48 | 303 | 1.7 | 2.6 | 0.03 | 0.38 | 0.30 | 94 | 1008.4 |
| 20260507100517 | 48 | 357 | 2.6 | 5.2 | 0.03 | 0.38 | 0.30 | 94 | 1008.3 |
| 20260507095517 | 49 | 359 | 2.6 | 4.3 | 0.02 | 0.37 | 0.29 | 93 | 1008.1 |
| 20260507094520 | 49 | 296 | 3.5 | 5.2 | 0.02 | 0.35 | 0.28 | 93 | 1008.1 |
| 20260507093558 | 49 | 301 | 3.5 | 5.2 | 0.03 | 0.35 | 0.27 | 93 | 1007.9 |
| 20260507092517 | 49 | 298 | 3.5 | 6.1 | 0.05 | 0.35 | 0.27 | 94 | 1007.9 |
| 20260507091517 | 49 | 299 | 2.6 | 5.2 | 0.06 | 0.35 | 0.27 | 94 | 1008.0 |
| 20260507090521 | 50 | 298 | 3.5 | 5.2 | 0.16 | 0.35 | 0.27 | 94 | 1008.0 |
| 20260507085518 | 51 | 302 | 3.5 | 5.2 | 0.19 | 0.34 | 0.27 | 95 | 1007.3 |
| 20260507084517 | 51 | 309 | 1.7 | 3.5 | 0.20 | 0.33 | 0.25 | 95 | 1007.4 |
| 20260507083518 | 51 | 352 | 3.5 | 5.2 | 0.22 | 0.32 | 0.24 | 94 | 1007.3 |
| 20260507082518 | 51 | 351 | 3.5 | 4.3 | 0.23 | 0.30 | 0.23 | 94 | 1007.4 |
| 20260507081521 | 52 | 326 | 1.7 | 6.1 | 0.21 | 0.29 | 0.21 | 94 | 1007.5 |
| 20260507080518 | 53 | 299 | 1.7 | 5.2 | 0.11 | 0.19 | 0.11 | 94 | 1007.6 |
| 20260507075519 | 54 | 310 | 4.3 | 7.0 | 0.07 | 0.15 | 0.07 | 93 | 1007.3 |
| 20260507074519 | 55 | 305 | 2.6 | 4.3 | 0.05 | 0.13 | 0.05 | 93 | 1007.0 |
| 20260507073519 | 56 | 279 | 3.5 | 5.2 | 0.02 | 0.10 | 0.02 | 92 | 1006.6 |
| 20260507072519 | 56 | 319 | 0.0 | 1.7 | 0.00 | 0.08 | 0.00 | 95 | 1005.8 |
| 20260507071516 | 56 | 285 | 0.9 | 1.7 | 0.00 | 0.08 | 0.00 | 96 | 1005.8 |
| 20260507070539 | 56 | 274 | 1.7 | 3.5 | 0.00 | 0.08 | 0.00 | 97 | 1005.7 |
| 20260507065519 | 56 | 300 | 1.7 | 2.6 | 0.00 | 0.08 | 0.00 | 97 | 1005.9 |
| 20260507064520 | 56 | 0.0 | 0.0 | 0.00 | 0.08 | 0.00 | 98 | 1005.8 | |
| 20260507063539 | 57 | 291 | 0.0 | 0.9 | 0.00 | 0.08 | 0.00 | 97 | 1005.8 |
| 20260507062517 | 57 | 0.0 | 0.0 | 0.00 | 0.08 | 0.00 | 97 | 1005.9 | |
| 20260507061518 | 57 | 90 | 0.0 | 0.9 | 0.00 | 0.08 | 0.00 | 97 | 1006.0 |
| 20260507060517 | 57 | 156 | 0.9 | 1.7 | 0.00 | 0.08 | 0.00 | 97 | 1006.1 |
| 20260507055517 | 57 | 353 | 0.0 | 0.9 | 0.00 | 0.08 | 0.00 | 97 | 1006.2 |
| 20260507054521 | 57 | 200 | 0.9 | 2.6 | 0.00 | 0.08 | 0.00 | 97 | 1006.3 |
| 20260507053521 | 57 | 193 | 0.9 | 1.7 | 0.00 | 0.08 | 0.00 | 97 | 1006.3 |
| 20260507052518 | 57 | 197 | 1.7 | 2.6 | 0.00 | 0.08 | 0.00 | 97 | 1006.4 |
| 20260507051538 | 57 | 185 | 0.9 | 1.7 | 0.00 | 0.08 | 0.00 | 97 | 1006.5 |
| 20260507050518 | 57 | 199 | 1.7 | 1.7 | 0.00 | 0.08 | 0.00 | 97 | 1006.6 |
| 20260507045518 | 57 | 194 | 0.9 | 1.7 | 0.00 | 0.08 | 0.00 | 97 | 1006.6 |
| 20260507044519 | 57 | 165 | 2.6 | 3.5 | 0.00 | 0.08 | 0.00 | 97 | 1006.6 |
| 20260507043519 | 57 | 147 | 0.0 | 0.9 | 0.00 | 0.08 | 0.00 | 97 | 1006.7 |
| 20260507042519 | 57 | 164 | 1.7 | 2.6 | 0.00 | 0.08 | 0.00 | 97 | 1006.4 |
| 20260507041519 | 56 | 147 | 0.9 | 0.9 | 0.00 | 0.08 | 0.00 | 97 | 1006.4 |
| 20260507040519 | 56 | 199 | 0.9 | 2.6 | 0.00 | 0.08 | 0.00 | 97 | 1006.5 |
| 20260507035516 | 56 | 227 | 1.7 | 4.3 | 0.00 | 0.08 | 0.08 | 97 | 1006.4 |
| 20260507034520 | 56 | 212 | 2.6 | 4.3 | 0.00 | 0.08 | 0.08 | 97 | 1006.6 |
| 20260507033520 | 56 | 194 | 3.5 | 4.3 | 0.00 | 0.08 | 0.08 | 97 | 1006.8 |
| 20260507032517 | 56 | 172 | 1.7 | 1.7 | 0.00 | 0.08 | 0.08 | 97 | 1006.7 |
| 20260507031518 | 56 | 167 | 1.7 | 2.6 | 0.00 | 0.08 | 0.08 | 97 | 1006.7 |
| 20260507030517 | 56 | 189 | 2.6 | 5.2 | 0.00 | 0.08 | 0.08 | 97 | 1006.6 |
| 20260507025520 | 56 | 205 | 1.7 | 3.5 | 0.00 | 0.08 | 0.08 | 97 | 1006.5 |
| 20260507024521 | 56 | 173 | 1.7 | 3.5 | 0.00 | 0.08 | 0.08 | 97 | 1006.5 |
| 20260507023518 | 56 | 187 | 1.7 | 4.3 | 0.00 | 0.08 | 0.08 | 97 | 1006.6 |
| 20260507022518 | 56 | 182 | 3.5 | 6.1 | 0.00 | 0.08 | 0.08 | 97 | 1006.4 |
| 20260507021519 | 56 | 191 | 2.6 | 5.2 | 0.00 | 0.08 | 0.08 | 97 | 1006.7 |
| 20260507020518 | 56 | 182 | 3.5 | 6.1 | 0.00 | 0.08 | 0.08 | 97 | 1006.6 |
| 20260507015515 | 56 | 202 | 1.7 | 3.5 | 0.00 | 0.08 | 0.08 | 97 | 1006.8 |
| 20260507014518 | 56 | 187 | 1.7 | 3.5 | 0.00 | 0.08 | 0.08 | 97 | 1007.0 |
| 20260507013518 | 56 | 214 | 3.5 | 5.2 | 0.00 | 0.08 | 0.08 | 97 | 1006.9 |
| 20260507012519 | 56 | 182 | 3.5 | 5.2 | 0.00 | 0.08 | 0.08 | 97 | 1007.1 |
| 20260507011519 | 56 | 201 | 4.3 | 6.1 | 0.00 | 0.08 | 0.08 | 97 | 1007.0 |
| 20260507010516 | 56 | 176 | 3.5 | 5.2 | 0.00 | 0.08 | 0.08 | 97 | 1007.1 |
| 20260507005539 | 56 | 156 | 1.7 | 3.5 | 0.00 | 0.08 | 0.08 | 97 | 1007.1 |
| 20260507004520 | 56 | 207 | 2.6 | 3.5 | 0.01 | 0.08 | 0.08 | 97 | 1007.1 |
| 20260507003520 | 56 | 196 | 4.3 | 7.0 | 0.01 | 0.08 | 0.08 | 97 | 1007.0 |
| 20260507002520 | 56 | 182 | 5.2 | 9.6 | 0.01 | 0.08 | 0.08 | 97 | 1007.0 |
| 20260507001517 | 56 | 198 | 2.6 | 6.1 | 0.01 | 0.08 | 0.08 | 97 | 1007.1 |
| 20260507000517 | 56 | 196 | 3.5 | 4.3 | 0.01 | 0.08 | 0.08 | 97 | 1007.1 |
| 20260506235541 | 56 | 183 | 4.3 | 6.1 | 0.01 | 0.08 | 0.08 | 96 | 1007.0 |
| 20260506234520 | 56 | 168 | 3.5 | 5.2 | 0.00 | 0.07 | 0.07 | 96 | 1007.0 |
| 20260506233517 | 56 | 214 | 6.1 | 7.8 | 0.00 | 0.07 | 0.07 | 96 | 1007.1 |
| 20260506232518 | 55 | 203 | 2.6 | 4.3 | 0.00 | 0.07 | 0.07 | 96 | 1007.2 |
| 20260506231518 | 55 | 202 | 3.5 | 5.2 | 0.01 | 0.07 | 0.07 | 96 | 1007.3 |
| 20260506230518 | 55 | 183 | 7.0 | 10.4 | 0.01 | 0.07 | 0.07 | 96 | 1007.2 |
| 20260506225518 | 56 | 210 | 2.6 | 3.5 | 0.01 | 0.07 | 0.07 | 96 | 1007.2 |
| 20260506224518 | 56 | 193 | 3.5 | 4.3 | 0.01 | 0.07 | 0.07 | 96 | 1007.0 |
| 20260506223519 | 56 | 176 | 3.5 | 6.1 | 0.01 | 0.07 | 0.07 | 96 | 1007.2 |
| 20260506222519 | 56 | 192 | 5.2 | 7.8 | 0.00 | 0.07 | 0.07 | 95 | 1007.3 |
| 20260506221519 | 56 | 178 | 3.5 | 6.1 | 0.00 | 0.06 | 0.06 | 95 | 1007.6 |
| 20260506220516 | 56 | 184 | 4.3 | 6.1 | 0.00 | 0.06 | 0.06 | 95 | 1007.6 |
| 20260506215516 | 56 | 193 | 3.5 | 7.0 | 0.00 | 0.06 | 0.06 | 94 | 1007.7 |
| 20260506214520 | 57 | 178 | 4.3 | 7.8 | 0.00 | 0.06 | 0.06 | 93 | 1007.7 |
| 20260506213519 | 57 | 184 | 2.6 | 5.2 | 0.00 | 0.06 | 0.06 | 93 | 1007.8 |
| 20260506212537 | 57 | 182 | 2.6 | 6.1 | 0.00 | 0.06 | 0.06 | 93 | 1007.9 |
| 20260506211518 | 57 | 182 | 1.7 | 4.3 | 0.00 | 0.06 | 0.06 | 93 | 1007.9 |
| 20260506210540 | 57 | 183 | 7.0 | 9.6 | 0.00 | 0.06 | 0.06 | 92 | 1008.0 |
| 20260506205521 | 57 | 197 | 7.8 | 11.3 | 0.02 | 0.06 | 0.06 | 92 | 1008.1 |
| 20260506204518 | 57 | 177 | 5.2 | 7.8 | 0.03 | 0.06 | 0.06 | 92 | 1008.0 |
| 20260506203517 | 58 | 183 | 5.2 | 9.6 | 0.05 | 0.06 | 0.06 | 92 | 1008.2 |
| 20260506202538 | 58 | 206 | 5.2 | 8.7 | 0.06 | 0.06 | 0.06 | 92 | 1008.1 |
| 20260506201538 | 58 | 206 | 4.3 | 6.1 | 0.06 | 0.06 | 0.06 | 92 | 1008.3 |
| 20260506200518 | 59 | 189 | 5.2 | 7.0 | 0.06 | 0.06 | 0.06 | 92 | 1008.2 |
| 20260506195519 | 59 | 204 | 6.1 | 12.2 | 0.04 | 0.04 | 0.04 | 89 | 1008.3 |
| 20260506194518 | 60 | 204 | 4.3 | 7.0 | 0.03 | 0.03 | 0.03 | 86 | 1008.6 |
| 20260506193518 | 61 | 177 | 3.5 | 6.1 | 0.01 | 0.01 | 0.01 | 84 | 1008.6 |
| 20260506192519 | 62 | 191 | 4.3 | 6.1 | 0.00 | 0.00 | 0.00 | 80 | 1008.6 |
| 20260506191519 | 62 | 171 | 7.0 | 13.0 | 0.00 | 0.00 | 0.00 | 77 | 1008.2 |
| 20260506190519 | 62 | 190 | 4.3 | 7.0 | 0.00 | 0.00 | 0.00 | 76 | 1008.2 |
| 20260506185539 | 62 | 184 | 4.3 | 9.6 | 0.00 | 0.00 | 0.00 | 76 | 1008.1 |
| 20260506184540 | 62 | 181 | 3.5 | 6.1 | 0.00 | 0.00 | 0.00 | 76 | 1008.1 |
| 20260506183519 | 63 | 193 | 4.3 | 7.0 | 0.00 | 0.00 | 0.00 | 75 | 1008.4 |
| 20260506182517 | 63 | 191 | 6.1 | 7.8 | 0.00 | 0.00 | 0.00 | 74 | 1008.5 |
| 20260506181538 | 64 | 181 | 3.5 | 6.1 | 0.00 | 0.00 | 0.00 | 73 | 1008.3 |
| 20260506180538 | 64 | 170 | 6.1 | 9.6 | 0.00 | 0.00 | 0.00 | 73 | 1008.5 |
| 20260506175517 | 65 | 201 | 6.1 | 9.6 | 0.00 | 0.00 | 0.00 | 72 | 1008.8 |
| 20260506173517 | 65 | 206 | 5.2 | 7.8 | 0.00 | 0.00 | 0.00 | 71 | 1008.8 |
| 20260506172517 | 65 | 180 | 5.2 | 8.7 | 0.00 | 0.00 | 0.00 | 70 | 1008.5 |
| 20260506171538 | 65 | 172 | 5.2 | 8.7 | 0.00 | 0.00 | 0.00 | 71 | 1008.8 |
| 20260506170521 | 65 | 171 | 7.8 | 10.4 | 0.00 | 0.00 | 0.00 | 70 | 1007.3 |
| 20260506165518 | 65 | 167 | 4.3 | 7.0 | 0.00 | 0.00 | 0.00 | 72 | 1008.4 |
| 20260506164518 | 64 | 185 | 6.1 | 9.6 | 0.00 | 0.00 | 0.00 | 72 | 1008.8 |
| 20260506163518 | 65 | 174 | 5.2 | 7.8 | 0.00 | 0.00 | 0.00 | 71 | 1008.9 |
| 20260506162519 | 64 | 195 | 4.3 | 6.1 | 0.00 | 0.00 | 0.00 | 71 | 1008.8 |
| 20260506161539 | 65 | 175 | 7.8 | 10.4 | 0.00 | 0.00 | 0.00 | 72 | 1009.3 |